WetterOnline ( https://www.wetteronline.de )

Wetter aktuell Trebsen

Aktuelles Wetter: Leipzig-Holzhausen (138m)

6-stündlich | Neueste Meldungen
Ortszeit Temperatur Wetter
Mi, 18.05. 2:00 11.4° C wolkig
Di, 17.05. 20:00 19.0° C bewölkt
Di, 17.05. 14:00 20.8° C leicht bewölkt
Di, 17.05. 8:00 15.1° C leichter Regen
Di, 17.05. 2:00 17.0° C bewölkt
Mo, 16.05. 20:00 20.0° C leichter Regen
Mo, 16.05. 14:00 26.2° C bewölkt
Mo, 16.05. 8:00 14.7° C wolkenlos
Ortszeit Temperatur Wetter
Mi, 18.05. 2:30 11.8° C wolkig
Mi, 18.05. 2:20 11.8° C Dunst
Mi, 18.05. 2:10 11.1° C Dunst
Mi, 18.05. 2:00 11.4° C wolkig
Mi, 18.05. 1:50 11.4° C wolkig
Mi, 18.05. 1:40 11.5° C bedeckt
Mi, 18.05. 1:30 11.8° C wolkig
Mi, 18.05. 1:00 12.1° C Nebel
Mi, 18.05. 0:30 12.7° C Nebel
Mi, 18.05. 0:00 13.1° C leicht bewölkt
Di, 17.05. 23:30 14.2° C fast wolkenlos
Ortszeit Relative Feuchte Sichtweite
Mi, 18.05. 2:00 97% 11 km
Di, 17.05. 20:00 66% 60 km
Di, 17.05. 14:00 63% 40 km
Di, 17.05. 8:00 95% 7 km
Di, 17.05. 2:00 91% 26 km
Mo, 16.05. 20:00 70% 20 km
Mo, 16.05. 14:00 36% 55 km
Mo, 16.05. 8:00 62% 55 km
Ortszeit Relative Feuchte Sichtweite
Mi, 18.05. 2:30 97% 5.0 km
Mi, 18.05. 2:20 97% -
Mi, 18.05. 2:10 97% -
Mi, 18.05. 2:00 97% 11 km
Mi, 18.05. 1:50 97% -
Mi, 18.05. 1:40 97% -
Mi, 18.05. 1:30 97% 10 km
Mi, 18.05. 1:00 97% 8 km
Mi, 18.05. 0:30 94% 13 km
Mi, 18.05. 0:00 95% 14 km
Di, 17.05. 23:30 94% 10 km
Ortszeit Niederschlagsmenge Niederschlagsart
Mi, 18.05. 2:00 0.0 l/m2 in 6 Std. -
Di, 17.05. 20:00 1 l/m2 in 12 Std. Regen
Di, 17.05. 14:00 1 l/m2 in 6 Std. Regen
Di, 17.05. 8:00 3 l/m2 in 12 Std. Regen
Di, 17.05. 2:00 3 l/m2 in 6 Std. Regen
Mo, 16.05. 20:00 0.1 l/m2 in 12 Std. Regen
Mo, 16.05. 14:00 0.0 l/m2 in 6 Std. -
Mo, 16.05. 8:00 0.0 l/m2 in 12 Std. -
Ortszeit Niederschlagsmenge Niederschlagsart
Mi, 18.05. 2:30 0.0 l/m2 in 1 Std. -
Mi, 18.05. 2:20 keine Meldung -
Mi, 18.05. 2:10 keine Meldung -
Mi, 18.05. 2:00 0.0 l/m2 in 1 Std. -
Mi, 18.05. 1:50 keine Meldung -
Mi, 18.05. 1:40 keine Meldung -
Mi, 18.05. 1:30 0.0 l/m2 in 1 Std. -
Mi, 18.05. 1:00 0.0 l/m2 in 1 Std. -
Mi, 18.05. 0:30 0.0 l/m2 in 1 Std. -
Mi, 18.05. 0:00 0.0 l/m2 in 1 Std. -
Di, 17.05. 23:30 0.0 l/m2 in 1 Std. -
Ortszeit Stärke Spitze Richtung
km/h Bft. km/h Grad Sektor
Mi, 18.05. 2:00 2 1 7 130° SO
Di, 17.05. 20:00 4 1 25 170° S
Di, 17.05. 14:00 7 2 22 40° NO
Di, 17.05. 8:00 9 2 28 310° NW
Di, 17.05. 2:00 9 2 17 280° W
Mo, 16.05. 20:00 4 1 36 200° S
Mo, 16.05. 14:00 9 2 20 170° S
Mo, 16.05. 8:00 4 1 11 120° SO
Ortszeit Stärke Spitze Richtung
km/h Bft. km/h Grad Sektor
Mi, 18.05. 2:30 2 1 6 60° NO
Mi, 18.05. 2:20 2 1 - 60° NO
Mi, 18.05. 2:10 4 1 - 200° S
Mi, 18.05. 2:00 2 1 4 130° SO
Mi, 18.05. 1:50 2 1 - 130° SO
Mi, 18.05. 1:40 2 1 - 140° SO
Mi, 18.05. 1:30 0 0 4 - -
Mi, 18.05. 1:00 0 0 7 - -
Mi, 18.05. 0:30 4 1 7 100° O
Mi, 18.05. 0:00 4 1 7 130° SO
Di, 17.05. 23:30 4 1 7 120° SO
Ortszeit Untergrenze Bedeckung Gattung
total tief tief mittel hoch
Mi, 18.05. 2:00 1500 m 8/8 1/8 - - -
Di, 17.05. 20:00 3000 m 7/8 7/8 - - -
Di, 17.05. 14:00 720 m 5/8 2/8 - - -
Di, 17.05. 8:00 150 m 7/8 7/8 - - -
Di, 17.05. 2:00 1500 m 8/8 5/8 - - -
Mo, 16.05. 20:00 2400 m 8/8 7/8 - - -
Mo, 16.05. 14:00 5700 m 8/8 7/8 - - -
Mo, 16.05. 8:00 - 0/8 0/8 - - -
Ortszeit Bedeckungsgrad in Achtel und Wolkenuntergrenze
Mi, 18.05. 2:30 8(7200m) 8(9000m)
Mi, 18.05. 2:20 8(7200m) 8(9000m)
Mi, 18.05. 2:10 8
Mi, 18.05. 2:00 1(1500m) 8(7200m)
Mi, 18.05. 1:50 1(1500m) 8(7200m)
Mi, 18.05. 1:40 8
Mi, 18.05. 1:30 6(7500m) 6(8100m) 7(9000m)
Mi, 18.05. 1:00 7(7500m) 7(9000m) 7(9000m)
Mi, 18.05. 0:30 6(7800m) 6(9000m)
Mi, 18.05. 0:00 5(8100m) 5(9000m)
Di, 17.05. 23:30 1(9000m)
Ortszeit Luftdruck NN (hPa) Tendenz (hPa in 3 Std.)
Mi, 18.05. 2:00 1023 + 0,8
Di, 17.05. 20:00 1021 + 0,4
Di, 17.05. 14:00 1021 0,0
Di, 17.05. 8:00 1020 + 1,7
Di, 17.05. 2:00 1017 + 0,3
Mo, 16.05. 20:00 1016 - 0,3
Mo, 16.05. 14:00 1016 - 1,0
Mo, 16.05. 8:00 1019 - 0,1
Ortszeit Luftdruck NN (hPa) Tendenz (hPa in 3 Std.)
Mi, 18.05. 2:30 1023 + 0,7
Mi, 18.05. 2:20 1023 keine Meldung
Mi, 18.05. 2:10 1023 keine Meldung
Mi, 18.05. 2:00 1023 + 0,8
Mi, 18.05. 1:50 1023 keine Meldung
Mi, 18.05. 1:40 1023 keine Meldung
Mi, 18.05. 1:30 1023 + 0,8
Mi, 18.05. 1:00 1023 + 0,6
Mi, 18.05. 0:30 1023 + 0,7
Mi, 18.05. 0:00 1023 + 0,7
Di, 17.05. 23:30 1022 + 0,8
Ortszeit Schneehöhe (cm)
Mi, 18.05. 2:00 0
Di, 17.05. 20:00 0
Di, 17.05. 14:00 0
Di, 17.05. 8:00 0
Di, 17.05. 2:00 0
Mo, 16.05. 20:00 0
Mo, 16.05. 14:00 0
Mo, 16.05. 8:00 0
Ortszeit Schneehöhe (cm)
Mi, 18.05. 2:30 0
Mi, 18.05. 2:20 0
Mi, 18.05. 2:10 0
Mi, 18.05. 2:00 0
Mi, 18.05. 1:50 0
Mi, 18.05. 1:40 0
Mi, 18.05. 1:30 0
Mi, 18.05. 1:00 0
Mi, 18.05. 0:30 0
Mi, 18.05. 0:00 0
Di, 17.05. 23:30 0
Link zu dieser Seite / Seite empfehlen

Das Wetter in ...